Location: Berlise
(49.6641°N, 4.1077°E)
Time: 19:56:58
(UTC+00:00)

Cosmos 2150 Rocket - Pass Details

Date: 27 January 2021
Orbit: 748 x 808 km, 74.0° (Epoch: 27 February)

Event Time Altitude Azimuth Distance (km) Brightness Sun altitude
Exits shadow 04:33:49 36° 356° (N) 1,245 5.0 -27.2°
Maximum altitude 04:35:56 63° 63° (ENE) 887 4.4 -26.9°
Drops below altitude 10° 04:41:18 10° 144° (SE) 2,371 6.9 -26.0°
Sets 04:43:44 0° 148° (SSE) 3,303 7.7 -25.6°
